STARLINK-36897, 67951

Orbit data source: Space-Track

STARLINK-36897, 67951 is a payload satellite owned by SpaceX/Seattle (US) in LEO that was launched on Tue, 24 Feb 2026 UTC via an FALCON 9 launch vehicle from the Air Force Eastern Test Range (AFETR). Payload-class satellites include a variety of spacecraft equipped with specific instruments for various scientific and technological missions. These include communications satellites like Starlink; space stations such as the ISS; scientific satellites like the Hubble; Earth observation satellites from companies like Planet Labs, Umbra, and HawkEye 360; GPS; miniature CubeSats for education and research; and military/defense satellites.

Loading next visibility...
Identifier
67951, 2026-037V
Orbit
LEO
Country
Flag of USUS
Related business
Manufacturer
SpaceX/Seattle
Mission
Operational Commercial Communications
Bus & Motor
STARLINK V2MO, Unknown motor
Mass
575 kg wet, ~530 kg dry
Launch date (UTC)
2026-02-24 (4 months ago)
Launch vehicle
FALCON 9
Launch site
Air Force Eastern Test Range (AFETR)
Object type
Payload
Rocket body
Debris
Shape & HBR
Box + 2 Pan, 17.7 m
Radar Cross Section
36.964 m², Large (>1 m²)

Expand to show TLE details & history
Last TLE update: 9 hours ago

TLE from 9 hours ago
0 STARLINK-36897
1 67951U 26037V   26171.45670096  .00022423  00000-0  82153-3 0  9995
2 67951  43.0049 330.6868 0001113 224.7990 135.2772 15.27594093 19050
Epoch: 2026-06-20T10:57Z
TLE epoch observation values (Epoch: 2026-06-20T10:57:38.962Z)
Latitude
-0.00004°
Longitude
-102.39664°
Altitude
483.325 km
Speed
7.625 km/s
True Right ascension
22h 02m 44s
True Declination
0° 00' 00"
Sunlit
Object was in full shadow at epoch
Visualization orbit readout
Latitude
Unknown
Longitude
Unknown
Altitude
Unknown
Speed
Unknown
Apparent Right ascension
Unknown
Apparent Declination
Unknown
Sunlit
N/A
Visualization observer readout
Local Sidereal Time
07:12:57
Azimuth
Unknown
Elevation
Unknown
Doppler factor
Unknown
Orbital elements
Apogee altitude
485.715 km
Perigee altitude
484.187 km
Semi-major axis
6,863.088 km
Eccentricity
0.00011
Inclination
43.0049°
RAAN
330.6868°
Arg. of periapsis
224.799°
True anomaly
135.28617°
Mean anomaly
135.2772°
Eccentric anomaly
135.28169°
Mean motion
3.81737 °/min
Orbital period
94.31 mins
BSTAR
0.00082153
Loading maneuver chart data...
Computing Atmospheric mass density...
Loading historical data...
Loading historical data...
Loading historical data...
Loading historical data...
Loading historical data...
Loading historical data...
Loading historical data...

Documentation

Showing up to 5 results
|